Showing default

LEMUR 2 MONSON, 42839

Orbit data source: Space-Track

LEMUR 2 MONSON, 42839 is a payload satellite owned by Spire (US) in SSO that was launched on Fri, 14 Jul 2017 UTC via a SOYUZ-2-1A launch vehicle from the Tyuratam Missile And Space Complex (TTMTR). Payload-class satellites include a variety of spacecraft equipped with specific instruments for various scientific and technological missions. These include communications satellites like Starlink; space stations such as the ISS; scientific satellites like the Hubble; Earth observation satellites from companies like Planet Labs, Umbra, and HawkEye 360; GPS; miniature CubeSats for education and research; and military/defense satellites.

Loading next visibility...
Identifier
42839, 2017-042Q
Orbit
SSO
Country
Flag of USUS
Related business
Manufacturer
Spire/Glasgow
Mission
Operational Commercial Com/MetRO
Bus & Motor
CUBESAT 3U, Unknown motor
Mass
4 kg wet, 4 kg dry
Launch date (UTC)
2017-07-14 (9 years ago)
Launch vehicle
SOYUZ-2-1A
Launch site
Tyuratam Missile And Space Complex (TTMTR)
Object type
Payload
Rocket body
Debris
Shape & HBR
Box, 0.5 m
Radar Cross Section
0.093 m², Small (<0.1 m²)

Expand to show TLE details & history
Last TLE update: 10 hours ago

TLE from 10 hours ago
0 LEMUR 2 MONSON
1 42839U 17042Q   26034.45823363  .00019412  00000-0  80976-3 0  9999
2 42839  97.3991 216.3163 0007668 104.1284 256.0806 15.23691052467777
Epoch: 2026-02-03T10:59Z
TLE epoch observation values (Epoch: 2026-02-03T10:59:51.385Z)
Latitude
-0°
Longitude
-82.28668°
Altitude
499.086 km
Speed
7.614 km/s
True Right ascension
14h 25m 15s
True Declination
0° 00' 00"
Sunlit
Object was in daylight at epoch
Visualization orbit readout
Latitude
Unknown
Longitude
Unknown
Altitude
Unknown
Speed
Unknown
Apparent Right ascension
Unknown
Apparent Declination
Unknown
Sunlit
N/A
Visualization observer readout
Local Sidereal Time
22:52:17
Azimuth
Unknown
Elevation
Unknown
Doppler factor
Unknown
Orbital elements
Apogee altitude
496.947 km
Perigee altitude
486.412 km
Semi-major axis
6,869.816 km
Eccentricity
0.00077
Inclination
97.3991°
RAAN
216.3163°
Arg. of periapsis
104.1284°
True anomaly
255.99533°
Mean anomaly
256.0806°
Eccentric anomaly
256.03796°
Mean motion
3.81176 °/min
Orbital period
94.44 mins
BSTAR
0.00080976
Loading maneuver chart data...
Computing Atmospheric mass density...
Loading historical data...
Loading historical data...
Loading historical data...
Loading historical data...
Loading historical data...
Loading historical data...
Loading historical data...

Documentation

Showing up to 5 results
|